| time (UTC) | temp C | wind direction | speed KPH | gust KPH | rain 1hr cm | rain 24hr cm | rain mn cm | humidity % | barometer mb |
| 20260504042129 | 9 | 244 | 1.6 | 1.6 | 0.00 | 0.00 | 0.00 | 60 | 1008.8 |
| 20260504041625 | 10 | 245 | 0.0 | 0.0 | 0.00 | 0.00 | 0.00 | 59 | 1008.7 |
| 20260504041121 | 10 | 229 | 0.0 | 1.6 | 0.00 | 0.00 | 0.00 | 59 | 1008.8 |
| 20260504040618 | 10 | 264 | 4.8 | 4.8 | 0.00 | 0.00 | 0.00 | 58 | 1008.7 |
| 20260504040115 | 10 | 214 | 8.0 | 12.9 | 0.00 | 0.00 | 0.00 | 56 | 1008.8 |
| 20260504035612 | 10 | 224 | 12.9 | 16.1 | 0.00 | 0.00 | 0.00 | 56 | 1008.9 |
| 20260504035108 | 10 | 249 | 4.8 | 4.8 | 0.00 | 0.00 | 0.00 | 56 | 1008.7 |
| 20260504034606 | 10 | 262 | 4.8 | 4.8 | 0.00 | 0.00 | 0.00 | 55 | 1008.7 |
| 20260504034103 | 10 | 208 | 12.9 | 16.1 | 0.00 | 0.00 | 0.00 | 55 | 1008.6 |
| 20260504033601 | 10 | 261 | 11.3 | 16.1 | 0.00 | 0.00 | 0.00 | 55 | 1008.6 |
| 20260504033058 | 10 | 250 | 11.3 | 12.9 | 0.00 | 0.00 | 0.00 | 55 | 1008.4 |
| 20260504032555 | 10 | 210 | 8.0 | 11.3 | 0.00 | 0.00 | 0.00 | 54 | 1008.7 |
| 20260504032052 | 10 | 244 | 3.2 | 4.8 | 0.00 | 0.00 | 0.00 | 55 | 1008.5 |
| 20260504031548 | 10 | 173 | 4.8 | 8.0 | 0.00 | 0.00 | 0.00 | 54 | 1008.8 |
| 20260504031044 | 11 | 236 | 6.4 | 9.7 | 0.00 | 0.00 | 0.00 | 54 | 1008.8 |
| 20260504030542 | 10 | 222 | 6.4 | 9.7 | 0.00 | 0.00 | 0.00 | 55 | 1008.8 |
| 20260504030038 | 11 | 258 | 6.4 | 8.0 | 0.00 | 0.00 | 0.00 | 53 | 1008.7 |
| 20260504025535 | 11 | 215 | 3.2 | 3.2 | 0.00 | 0.00 | 0.00 | 54 | 1008.7 |
| 20260504025032 | 11 | 238 | 9.7 | 11.3 | 0.00 | 0.00 | 0.00 | 53 | 1008.7 |
| 20260504024529 | 11 | 237 | 4.8 | 8.0 | 0.00 | 0.00 | 0.00 | 54 | 1008.7 |
| 20260504024026 | 11 | 320 | 6.4 | 8.0 | 0.00 | 0.00 | 0.00 | 54 | 1008.7 |
| 20260504023522 | 11 | 218 | 9.7 | 14.5 | 0.00 | 0.00 | 0.00 | 54 | 1008.6 |
| 20260504023018 | 11 | 246 | 6.4 | 9.7 | 0.00 | 0.00 | 0.00 | 54 | 1008.9 |
| 20260504022514 | 11 | 210 | 6.4 | 8.0 | 0.00 | 0.00 | 0.00 | 54 | 1008.7 |
| 20260504022011 | 11 | 225 | 4.8 | 4.8 | 0.00 | 0.00 | 0.00 | 55 | 1008.8 |
| 20260504021509 | 11 | 243 | 8.0 | 12.9 | 0.00 | 0.00 | 0.00 | 55 | 1008.8 |
| 20260504021006 | 11 | 209 | 3.2 | 3.2 | 0.00 | 0.00 | 0.00 | 54 | 1009.0 |
| 20260504020502 | 11 | 229 | 4.8 | 4.8 | 0.00 | 0.00 | 0.00 | 55 | 1008.9 |
| 20260504015959 | 11 | 249 | 3.2 | 4.8 | 0.00 | 0.00 | 0.00 | 55 | 1009.0 |
| 20260504015455 | 11 | 244 | 4.8 | 4.8 | 0.00 | 0.00 | 0.00 | 55 | 1009.2 |
| 20260504014951 | 11 | 204 | 4.8 | 4.8 | 0.00 | 0.00 | 0.00 | 54 | 1009.0 |
| 20260504014447 | 11 | 284 | 1.6 | 3.2 | 0.00 | 0.00 | 0.00 | 54 | 1009.3 |
| 20260504013944 | 11 | 225 | 3.2 | 8.0 | 0.00 | 0.00 | 0.00 | 53 | 1009.2 |
| 20260504013443 | 11 | 198 | 8.0 | 8.0 | 0.00 | 0.00 | 0.00 | 53 | 1009.1 |
| 20260504012938 | 11 | 239 | 6.4 | 9.7 | 0.00 | 0.00 | 0.00 | 52 | 1009.1 |
| 20260504012437 | 11 | 216 | 11.3 | 24.1 | 0.00 | 0.00 | 0.00 | 52 | 1009.1 |
| 20260504011934 | 11 | 266 | 9.7 | 11.3 | 0.00 | 0.00 | 0.00 | 52 | 1008.9 |
| 20260504011430 | 11 | 221 | 11.3 | 16.1 | 0.00 | 0.00 | 0.00 | 53 | 1009.2 |
| 20260504010926 | 11 | 266 | 8.0 | 9.7 | 0.00 | 0.00 | 0.00 | 53 | 1009.0 |
| 20260504010422 | 11 | 254 | 12.9 | 16.1 | 0.00 | 0.00 | 0.00 | 52 | 1008.9 |
| 20260504005919 | 11 | 201 | 19.3 | 22.5 | 0.00 | 0.00 | 0.00 | 52 | 1008.9 |
| 20260504005415 | 11 | 270 | 8.0 | 9.7 | 0.00 | 0.00 | 0.00 | 52 | 1008.9 |
| 20260504004913 | 11 | 210 | 12.9 | 17.7 | 0.00 | 0.00 | 0.00 | 52 | 1008.7 |
| 20260504004411 | 11 | 248 | 11.3 | 16.1 | 0.00 | 0.00 | 0.00 | 53 | 1008.8 |
| 20260504003908 | 11 | 245 | 8.0 | 9.7 | 0.00 | 0.00 | 0.00 | 54 | 1008.9 |
| 20260504003404 | 11 | 260 | 8.0 | 11.3 | 0.00 | 0.00 | 0.00 | 54 | 1009.1 |
| 20260504002900 | 11 | 242 | 17.7 | 20.9 | 0.00 | 0.00 | 0.00 | 53 | 1009.1 |
| 20260504002358 | 10 | 245 | 16.1 | 17.7 | 0.00 | 0.00 | 0.00 | 54 | 1009.0 |
| 20260504001855 | 10 | 239 | 11.3 | 12.9 | 0.00 | 0.00 | 0.00 | 57 | 1009.2 |
| 20260504001352 | 10 | 232 | 9.7 | 12.9 | 0.00 | 0.00 | 0.00 | 56 | 1009.4 |
| 20260504000849 | 10 | 301 | 8.0 | 11.3 | 0.00 | 0.00 | 0.00 | 56 | 1009.1 |
| 20260504000346 | 10 | 217 | 12.9 | 17.7 | 0.00 | 0.00 | 0.00 | 56 | 1009.2 |
| 20260503235843 | 10 | 290 | 17.7 | 27.4 | 0.00 | 0.00 | 0.00 | 54 | 1009.3 |
| 20260503235341 | 11 | 249 | 11.3 | 14.5 | 0.00 | 0.00 | 0.00 | 56 | 1009.2 |
| 20260503234838 | 11 | 266 | 8.0 | 11.3 | 0.00 | 0.00 | 0.00 | 54 | 1009.2 |
| 20260503234336 | 11 | 234 | 6.4 | 12.9 | 0.00 | 0.00 | 0.00 | 53 | 1008.9 |
| 20260503233834 | 11 | 258 | 14.5 | 20.9 | 0.00 | 0.00 | 0.00 | 52 | 1009.1 |
| 20260503233329 | 11 | 268 | 8.0 | 9.7 | 0.00 | 0.00 | 0.00 | 53 | 1009.2 |
| 20260503232826 | 11 | 237 | 17.7 | 20.9 | 0.00 | 0.00 | 0.00 | 52 | 1009.2 |
| 20260503232323 | 11 | 267 | 17.7 | 22.5 | 0.00 | 0.00 | 0.00 | 52 | 1008.8 |
| 20260503231821 | 11 | 235 | 8.0 | 11.3 | 0.00 | 0.00 | 0.00 | 54 | 1009.0 |
| 20260503231318 | 11 | 257 | 12.9 | 14.5 | 0.00 | 0.00 | 0.00 | 54 | 1009.1 |
| 20260503230814 | 11 | 280 | 12.9 | 14.5 | 0.00 | 0.00 | 0.00 | 53 | 1008.9 |
| 20260503230311 | 10 | 253 | 20.9 | 27.4 | 0.00 | 0.00 | 0.00 | 54 | 1009.1 |
| 20260503225809 | 11 | 240 | 17.7 | 24.1 | 0.00 | 0.00 | 0.00 | 54 | 1009.4 |
| 20260503225305 | 11 | 225 | 11.3 | 27.4 | 0.00 | 0.00 | 0.00 | 52 | 1009.1 |
| 20260503224801 | 11 | 219 | 9.7 | 14.5 | 0.00 | 0.00 | 0.00 | 51 | 1009.2 |
| 20260503224258 | 11 | 259 | 14.5 | 14.5 | 0.00 | 0.00 | 0.00 | 52 | 1009.2 |
| 20260503223756 | 11 | 273 | 16.1 | 22.5 | 0.00 | 0.00 | 0.00 | 54 | 1009.0 |
| 20260503223253 | 11 | 246 | 16.1 | 22.5 | 0.00 | 0.00 | 0.00 | 52 | 1009.1 |
| 20260503222749 | 11 | 231 | 11.3 | 14.5 | 0.00 | 0.00 | 0.00 | 54 | 1009.2 |
| 20260503222247 | 11 | 235 | 11.3 | 14.5 | 0.00 | 0.00 | 0.00 | 55 | 1009.2 |
| 20260503221746 | 11 | 321 | 14.5 | 17.7 | 0.00 | 0.00 | 0.00 | 54 | 1009.0 |
| 20260503221243 | 11 | 240 | 12.9 | 14.5 | 0.00 | 0.00 | 0.00 | 52 | 1008.8 |
| 20260503220739 | 11 | 231 | 19.3 | 24.1 | 0.00 | 0.00 | 0.00 | 51 | 1009.1 |
| 20260503220237 | 11 | 236 | 20.9 | 29.0 | 0.00 | 0.00 | 0.00 | 50 | 1009.2 |
| 20260503215733 | 12 | 247 | 19.3 | 24.1 | 0.00 | 0.00 | 0.00 | 49 | 1008.9 |
| 20260503215230 | 12 | 230 | 16.1 | 20.9 | 0.00 | 0.00 | 0.00 | 51 | 1009.0 |
| 20260503214728 | 12 | 232 | 11.3 | 12.9 | 0.00 | 0.00 | 0.00 | 52 | 1008.9 |
| 20260503214225 | 12 | 262 | 9.7 | 11.3 | 0.00 | 0.00 | 0.00 | 51 | 1008.8 |
| 20260503213723 | 12 | 265 | 8.0 | 11.3 | 0.00 | 0.00 | 0.00 | 51 | 1008.9 |
| 20260503213220 | 11 | 214 | 14.5 | 16.1 | 0.00 | 0.00 | 0.00 | 48 | 1009.0 |
| 20260503212716 | 12 | 228 | 8.0 | 12.9 | 0.00 | 0.00 | 0.00 | 50 | 1008.8 |
| 20260503212214 | 12 | 196 | 9.7 | 12.9 | 0.00 | 0.00 | 0.00 | 51 | 1009.0 |
| 20260503211712 | 12 | 269 | 8.0 | 11.3 | 0.00 | 0.00 | 0.00 | 50 | 1008.7 |
| 20260503211208 | 12 | 238 | 11.3 | 17.7 | 0.00 | 0.00 | 0.00 | 49 | 1008.8 |
| 20260503210703 | 12 | 216 | 8.0 | 9.7 | 0.00 | 0.00 | 0.00 | 51 | 1008.8 |
| 20260503210201 | 12 | 195 | 14.5 | 20.9 | 0.00 | 0.00 | 0.00 | 47 | 1008.7 |
| 20260503205656 | 12 | 228 | 19.3 | 24.1 | 0.00 | 0.00 | 0.00 | 47 | 1009.0 |
| 20260503205152 | 12 | 298 | 12.9 | 14.5 | 0.00 | 0.00 | 0.00 | 48 | 1008.8 |
| 20260503204649 | 12 | 227 | 19.3 | 29.0 | 0.00 | 0.00 | 0.00 | 47 | 1009.0 |
| 20260503204147 | 12 | 299 | 9.7 | 16.1 | 0.00 | 0.00 | 0.00 | 50 | 1008.8 |
| 20260503203643 | 13 | 253 | 16.1 | 20.9 | 0.00 | 0.00 | 0.00 | 47 | 1008.7 |
| 20260503203141 | 13 | 291 | 4.8 | 8.0 | 0.00 | 0.00 | 0.00 | 49 | 1008.8 |
| 20260503202638 | 12 | 221 | 8.0 | 11.3 | 0.00 | 0.00 | 0.00 | 50 | 1009.0 |
| 20260503202137 | 12 | 270 | 17.7 | 20.9 | 0.00 | 0.00 | 0.00 | 46 | 1009.1 |
| 20260503201634 | 12 | 291 | 11.3 | 14.5 | 0.00 | 0.00 | 0.00 | 49 | 1009.3 |
| 20260503201131 | 12 | 300 | 17.7 | 22.5 | 0.00 | 0.00 | 0.00 | 46 | 1009.3 |
| 20260503200627 | 12 | 224 | 17.7 | 27.4 | 0.00 | 0.00 | 0.00 | 47 | 1009.2 |
| 20260503200124 | 12 | 264 | 16.1 | 20.9 | 0.00 | 0.00 | 0.00 | 47 | 1009.6 |
| 20260503195621 | 12 | 278 | 12.9 | 14.5 | 0.00 | 0.00 | 0.00 | 46 | 1009.2 |
| 20260503195118 | 13 | 210 | 14.5 | 17.7 | 0.00 | 0.00 | 0.00 | 46 | 1009.7 |
| 20260503194615 | 12 | 253 | 8.0 | 11.3 | 0.00 | 0.00 | 0.00 | 45 | 1009.7 |
| 20260503194110 | 12 | 243 | 8.0 | 11.3 | 0.00 | 0.00 | 0.00 | 45 | 1009.3 |
| 20260503193607 | 12 | 194 | 12.9 | 16.1 | 0.00 | 0.00 | 0.00 | 44 | 1009.9 |
| 20260503193102 | 12 | 243 | 12.9 | 16.1 | 0.00 | 0.00 | 0.00 | 47 | 1009.8 |
| 20260503192558 | 12 | 247 | 11.3 | 12.9 | 0.00 | 0.00 | 0.00 | 48 | 1009.9 |
| 20260503192054 | 11 | 268 | 11.3 | 16.1 | 0.00 | 0.00 | 0.00 | 48 | 1010.0 |
| 20260503191551 | 12 | 226 | 19.3 | 22.5 | 0.00 | 0.00 | 0.00 | 46 | 1010.1 |
| 20260503191048 | 11 | 262 | 14.5 | 17.7 | 0.00 | 0.00 | 0.00 | 46 | 1010.2 |
| 20260503190545 | 11 | 273 | 11.3 | 14.5 | 0.00 | 0.00 | 0.00 | 47 | 1010.1 |
| 20260503190042 | 12 | 330 | 11.3 | 14.5 | 0.00 | 0.00 | 0.00 | 47 | 1010.1 |
| 20260503185539 | 12 | 252 | 12.9 | 20.9 | 0.00 | 0.00 | 0.00 | 44 | 1010.1 |
| 20260503185038 | 11 | 247 | 8.0 | 9.7 | 0.00 | 0.00 | 0.00 | 47 | 1010.4 |
| 20260503184535 | 11 | 250 | 11.3 | 16.1 | 0.00 | 0.00 | 0.00 | 44 | 1010.3 |
| 20260503184031 | 11 | 286 | 6.4 | 9.7 | 0.00 | 0.00 | 0.00 | 47 | 1010.5 |
| 20260503183528 | 11 | 260 | 8.0 | 12.9 | 0.00 | 0.00 | 0.00 | 47 | 1010.7 |
| 20260503183025 | 11 | 231 | 16.1 | 17.7 | 0.00 | 0.00 | 0.00 | 44 | 1010.7 |
| 20260503182524 | 11 | 266 | 11.3 | 16.1 | 0.00 | 0.00 | 0.00 | 46 | 1010.8 |
| 20260503182021 | 11 | 232 | 14.5 | 16.1 | 0.00 | 0.00 | 0.00 | 47 | 1010.9 |
| 20260503181518 | 11 | 225 | 16.1 | 20.9 | 0.00 | 0.00 | 0.00 | 47 | 1011.0 |
| 20260503181014 | 10 | 224 | 19.3 | 24.1 | 0.00 | 0.00 | 0.00 | 45 | 1011.0 |
| 20260503180512 | 10 | 205 | 16.1 | 20.9 | 0.00 | 0.00 | 0.00 | 46 | 1011.1 |
| 20260503180009 | 10 | 272 | 16.1 | 17.7 | 0.00 | 0.00 | 0.00 | 48 | 1011.2 |
| 20260503175506 | 10 | 267 | 16.1 | 17.7 | 0.00 | 0.00 | 0.00 | 48 | 1011.3 |
| 20260503175003 | 10 | 258 | 14.5 | 20.9 | 0.00 | 0.00 | 0.00 | 49 | 1011.4 |
| 20260503174501 | 10 | 273 | 14.5 | 17.7 | 0.00 | 0.00 | 0.00 | 50 | 1011.3 |
| 20260503173956 | 9 | 257 | 12.9 | 17.7 | 0.00 | 0.00 | 0.00 | 52 | 1011.5 |
| 20260503173451 | 10 | 330 | 12.9 | 14.5 | 0.00 | 0.00 | 0.00 | 52 | 1011.4 |
| 20260503172948 | 10 | 280 | 11.3 | 12.9 | 0.00 | 0.00 | 0.00 | 47 | 1011.4 |
| 20260503172446 | 10 | 283 | 12.9 | 16.1 | 0.00 | 0.00 | 0.00 | 50 | 1011.5 |
| 20260503171942 | 10 | 276 | 9.7 | 12.9 | 0.00 | 0.00 | 0.00 | 50 | 1011.5 |
| 20260503171439 | 9 | 289 | 11.3 | 12.9 | 0.00 | 0.00 | 0.00 | 47 | 1011.7 |
| 20260503170937 | 9 | 245 | 11.3 | 12.9 | 0.00 | 0.00 | 0.00 | 46 | 1011.5 |
| 20260503170432 | 10 | 249 | 8.0 | 12.9 | 0.00 | 0.00 | 0.00 | 45 | 1011.7 |
| 20260503150825 | 8 | 268 | 11.3 | 14.5 | 0.00 | 0.00 | 0.00 | 65 | 1012.5 |
| 20260503150321 | 8 | 272 | 9.7 | 11.3 | 0.00 | 0.00 | 0.00 | 62 | 1012.1 |
| 20260503140245 | 6 | 292 | 6.4 | 8.0 | 0.00 | 0.00 | 0.00 | 65 | 1012.6 |
| 20260503131215 | 5 | 227 | 8.0 | 9.7 | 0.00 | 0.00 | 0.00 | 71 | 1012.9 |
| 20260503130713 | 5 | 247 | 8.0 | 9.7 | 0.00 | 0.00 | 0.00 | 71 | 1013.0 |
| 20260503130210 | 5 | 273 | 3.2 | 3.2 | 0.00 | 0.00 | 0.00 | 74 | 1013.0 |
| 20260503120135 | 3 | 259 | 3.2 | 4.8 | 0.00 | 0.00 | 0.00 | 84 | 1013.0 |
| 20260503110603 | 1 | 240 | 0.0 | 0.0 | 0.00 | 0.00 | 0.00 | 77 | 1012.7 |
| 20260503090450 | 0 | 242 | 3.2 | 3.2 | 0.00 | 0.00 | 0.00 | 90 | 1012.8 |
| 20260503081416 | 1 | 254 | 3.2 | 3.2 | 0.00 | 0.00 | 0.00 | 90 | 1012.7 |
| 20260503080913 | 1 | 240 | 3.2 | 3.2 | 0.00 | 0.00 | 0.00 | 90 | 1012.6 |
| 20260503080410 | 1 | 239 | 3.2 | 3.2 | 0.00 | 0.00 | 0.00 | 90 | 1012.7 |
| 20260503072846 | 1 | 250 | 3.2 | 3.2 | 0.00 | 0.00 | 0.00 | 90 | 1012.8 |
| 20260503072343 | 1 | 270 | 4.8 | 4.8 | 0.00 | 0.00 | 0.00 | 90 | 1012.7 |
| 20260503071840 | 1 | 231 | 6.4 | 8.0 | 0.00 | 0.00 | 0.00 | 90 | 1012.9 |
| 20260503071337 | 1 | 227 | 4.8 | 8.0 | 0.00 | 0.00 | 0.00 | 90 | 1012.7 |
| 20260503070833 | 1 | 215 | 4.8 | 8.0 | 0.00 | 0.00 | 0.00 | 90 | 1012.9 |
| 20260503070332 | 1 | 251 | 3.2 | 4.8 | 0.00 | 0.00 | 0.00 | 91 | 1012.7 |
| 20260503060250 | 1 | 247 | 8.0 | 11.3 | 0.00 | 0.00 | 0.00 | 88 | 1013.0 |
| 20260503054738 | 1 | 242 | 4.8 | 4.8 | 0.00 | 0.00 | 0.00 | 88 | 1013.1 |
| 20260503054234 | 2 | 293 | 8.0 | 9.7 | 0.00 | 0.00 | 0.00 | 87 | 1012.9 |
| 20260503053732 | 2 | 290 | 6.4 | 8.0 | 0.00 | 0.00 | 0.00 | 87 | 1013.3 |
| 20260503053231 | 2 | 233 | 4.8 | 4.8 | 0.00 | 0.00 | 0.00 | 87 | 1013.2 |
| 20260503052727 | 2 | 326 | 4.8 | 4.8 | 0.00 | 0.00 | 0.00 | 87 | 1013.4 |
| 20260503052224 | 2 | 313 | 3.2 | 4.8 | 0.00 | 0.00 | 0.00 | 87 | 1013.1 |
| 20260503051718 | 2 | 290 | 3.2 | 3.2 | 0.00 | 0.00 | 0.00 | 86 | 1013.3 |
| 20260503051217 | 2 | 243 | 4.8 | 4.8 | 0.00 | 0.00 | 0.00 | 86 | 1013.3 |
| 20260503050713 | 2 | 293 | 6.4 | 9.7 | 0.00 | 0.00 | 0.00 | 85 | 1013.5 |
| 20260503050209 | 2 | 245 | 4.8 | 8.0 | 0.00 | 0.00 | 0.00 | 84 | 1013.4 |
| 20260503045707 | 2 | 256 | 4.8 | 4.8 | 0.00 | 0.00 | 0.00 | 84 | 1013.4 |
| 20260503045204 | 2 | 254 | 6.4 | 8.0 | 0.00 | 0.00 | 0.00 | 84 | 1013.5 |
| 20260503044701 | 2 | 227 | 4.8 | 4.8 | 0.00 | 0.00 | 0.00 | 84 | 1013.4 |
| 20260503044158 | 2 | 270 | 3.2 | 4.8 | 0.00 | 0.00 | 0.00 | 84 | 1013.5 |
| 20260503043655 | 2 | 224 | 4.8 | 8.0 | 0.00 | 0.00 | 0.00 | 84 | 1013.6 |
| 20260503043152 | 2 | 225 | 3.2 | 4.8 | 0.00 | 0.00 | 0.00 | 84 | 1013.6 |
| 20260503042648 | 2 | 251 | 3.2 | 3.2 | 0.00 | 0.00 | 0.00 | 84 | 1013.6 |